(209703) = 2005 EQ54

Discovered at Kitt Peak on 2005-03-04 by Spacewatch.

Orbit

Orbit type: Main Belt

Note: WebGL enabled browser required.

epoch2023-09-13.0
epoch JD2460200.5
perihelion date2019-07-16.17316
perihelion JD2458680.67316
argument of perihelion (°)336.86144
ascending node (°)346.87785
inclination (°)12.16251
eccentricity0.1225778
perihelion distance (AU)2.2864747
Tisserand w.r.t. Jupiter3.4
ΔV w.r.t. Earth (km/sec)10.2
semimajor axis (AU)2.6059003
mean anomaly (°)356.09121
mean daily motion (°/day)0.23429720
aphelion distance (AU)2.925
period (years)4.21
P-vector [x]0.80833648
P-vector [y]-0.50184120
P-vector [z]-0.30781089
Q-vector [x]0.58677448
Q-vector [y]0.64429010
Q-vector [z]0.49049564
absolute magnitude16.31
phase slope0.15
uncertainty0
referenceMPEC 2024-A48
observations used460
oppositions15
arc length (days)9209
first opposition used1998
last opposition used2023
residual rms (arc-secs)0.77
perturbers coarse indicatorM-v
perturbers precise indicator003Ek
first observation date used1998-09-18.0
last observation date used2023-12-05.0
computer nameMPCLINUX
JD of orbit computation2456819.524045
perihelion JD uncertainty (days)1.3336E-04
argument of perihelion uncertainty (°)3.8646E-05
ascending node uncertainty (°)2.6962E-05
inclination uncertainty (°)7.3586E-06
eccentricity uncertainty 5.9818E-08
perihelion distance uncertainty (AU)1.5800E-07
Minimum Orbit Intersection Distances (in AU)
for orbit epoch: 2460200.5, reference: E2024-A48
Mercury1.86507
Venus1.55875
Earth1.27964
Mars0.90669
Jupiter2.43036
Saturn6.27092
Uranus15.539
Neptune27.3502

Observations

470 total observations over interval: 1998 09 18.27230 – 2023 12 05.235023
These data are available for download (format description).

Date (UT) J2000 RA J2000 Dec Magn Location Ref
1998 09 18.27230 22 53 27.03 -06 51 22.0 19.0 R 699 – Lowell Observatory-LONEOS MPS 132623
1998 09 18.29024 22 53 25.95 -06 51 21.2   699 – Lowell Observatory-LONEOS MPS 132623
1998 09 18.30884 22 53 24.80 -06 51 20.2   699 – Lowell Observatory-LONEOS MPS 132623
2002 07 16.43129 21 34 46.74 -28 58 45.8 19.6   644 – Palomar Mountain/NEAT MPS 132623
2002 07 16.44159 21 34 46.21 -28 58 46.8 19.6   644 – Palomar Mountain/NEAT MPS 132623
2002 07 16.45198 21 34 45.73 -28 58 47.5 19.9   644 – Palomar Mountain/NEAT MPS 132623
2002 07 29.29144 21 22 48.10 -29 08 39.9 19.2   644 – Palomar Mountain/NEAT MPS 132623
2002 07 29.31529 21 22 46.53 -29 08 39.8 19.4   644 – Palomar Mountain/NEAT MPS 132623
2002 07 29.33600 21 22 45.16 -29 08 39.6 19.4   644 – Palomar Mountain/NEAT MPS 132623
2002 08 13.23410 21 06 16.20 -28 49 30.2 19.3   704 – Lincoln Laboratory ETS, New Mexico MPS 132623
2002 08 13.24960 21 06 15.10 -28 49 27.7 19.5   704 – Lincoln Laboratory ETS, New Mexico MPS 132623
2002 08 13.26509 21 06 14.11 -28 49 24.7 19.2   704 – Lincoln Laboratory ETS, New Mexico MPS 132623
2002 08 13.28058 21 06 13.05 -28 49 23.0 19.6   704 – Lincoln Laboratory ETS, New Mexico MPS 132623
2002 08 13.29607 21 06 12.00 -28 49 20.8 19.5   704 – Lincoln Laboratory ETS, New Mexico MPS 132623
2005 03 04.18133 11 26 59.16 +03 02 19.2 20.3 V 691 – Steward Observatory, Kitt Peak-Spacewatch MPS 128126
2005 03 04.20695 11 26 57.67 +03 02 22.4 20.3 V 691 – Steward Observatory, Kitt Peak-Spacewatch MPS 128126
2005 03 04.23285 11 26 56.12 +03 02 25.9 20.3 V 691 – Steward Observatory, Kitt Peak-Spacewatch MPS 128126
2005 03 08.29415 11 22 58.52 +03 11 32.7 19.4   704 – Lincoln Laboratory ETS, New Mexico MPS 128126
2005 03 08.30616 11 22 57.80 +03 11 33.4 19.7   704 – Lincoln Laboratory ETS, New Mexico MPS 128126
2005 03 08.31779 11 22 57.04 +03 11 35.0 19.8   704 – Lincoln Laboratory ETS, New Mexico MPS 128126
2005 03 08.32949 11 22 56.37 +03 11 37.1 19.7   704 – Lincoln Laboratory ETS, New Mexico MPS 128126
2005 03 08.34113 11 22 55.52 +03 11 39.4 20.1   704 – Lincoln Laboratory ETS, New Mexico MPS 128126
2005 03 09.25307 11 22 01.85 +03 13 45.1 19.5 R 699 – Lowell Observatory-LONEOS MPS 128126
2005 03 09.27253 11 22 00.67 +03 13 47.5   699 – Lowell Observatory-LONEOS MPS 128126
2005 03 09.29196 11 21 59.41 +03 13 48.4   699 – Lowell Observatory-LONEOS MPS 128126
2005 03 09.31142 11 21 58.20 +03 13 52.6   699 – Lowell Observatory-LONEOS MPS 128126
2005 04 04.27177 10 58 38.20 +04 04 01.8 19.0 R 703 – Catalina Sky Survey MPS 131744
2005 04 04.27984 10 58 37.81 +04 04 01.4 20.2 R 703 – Catalina Sky Survey MPS 131744
2005 04 04.28791 10 58 37.48 +04 04 03.2 19.6 R 703 – Catalina Sky Survey MPS 131744
2005 04 04.29595 10 58 37.16 +04 04 03.4 19.9 R 703 – Catalina Sky Survey MPS 131744
2005 04 09.27630 10 55 19.00 +04 08 31.3 19.8 R G96 – Mt. Lemmon Survey MPS 131744
2005 04 09.28163 10 55 18.78 +04 08 31.7 20.2 R G96 – Mt. Lemmon Survey MPS 131744
2005 04 09.28698 10 55 18.55 +04 08 31.2 19.4 R G96 – Mt. Lemmon Survey MPS 131744
2005 04 09.29226 10 55 18.42 +04 08 32.2 20.0 R G96 – Mt. Lemmon Survey MPS 131744
2005 04 12.16465 10 53 39.47 +04 09 59.6 19.7 R G96 – Mt. Lemmon Survey MPS 131744
2005 04 12.17067 10 53 39.23 +04 09 59.6 19.9 R G96 – Mt. Lemmon Survey MPS 131744
2005 04 12.17668 10 53 39.03 +04 09 59.8 20.1 R G96 – Mt. Lemmon Survey MPS 131744
2005 04 12.18270 10 53 38.84 +04 10 00.6 19.6 R G96 – Mt. Lemmon Survey MPS 131744
2005 05 14.14198 10 48 44.05 +03 25 18.0 21.2 R G96 – Mt. Lemmon Survey MPS 134887
2005 05 14.14723 10 48 44.10 +03 25 17.4 20.4 R G96 – Mt. Lemmon Survey MPS 134887
2005 05 14.15250 10 48 44.18 +03 25 16.0 21.1 R G96 – Mt. Lemmon Survey MPS 134887
2005 05 14.15777 10 48 44.25 +03 25 15.3 20.9 R G96 – Mt. Lemmon Survey MPS 134887
2009 01 18.51549 10 52 45.56 +13 38 19.9   691 – Steward Observatory, Kitt Peak-Spacewatch MPS 272563
2009 01 18.53363 10 52 44.97 +13 38 21.8   691 – Steward Observatory, Kitt Peak-Spacewatch MPS 272563
2009 01 18.55179 10 52 44.44 +13 38 23.1   691 – Steward Observatory, Kitt Peak-Spacewatch MPS 272563
2009 02 01.38320 10 43 58.36 +14 03 55.5 20.3 V 691 – Steward Observatory, Kitt Peak-Spacewatch MPS 272563
2009 02 01.40132 10 43 57.48 +14 03 58.0 20.5 V 691 – Steward Observatory, Kitt Peak-Spacewatch MPS 272563
2009 02 01.41967 10 43 56.60 +14 04 00.5 20.5 V 691 – Steward Observatory, Kitt Peak-Spacewatch MPS 272563
2009 02 05.40585 10 40 39.45 +14 13 20.9 20.4 V 691 – Steward Observatory, Kitt Peak-Spacewatch MPS 272563
2009 02 05.42423 10 40 38.48 +14 13 23.6 20.3 V 691 – Steward Observatory, Kitt Peak-Spacewatch MPS 272563
2009 02 05.44238 10 40 37.51 +14 13 25.8 20.3 V 691 – Steward Observatory, Kitt Peak-Spacewatch MPS 272563
2009 02 25.31223 10 21 21.85 +14 59 16.9 20.4 V 703 – Catalina Sky Survey MPS 277585
2009 02 25.31758 10 21 21.49 +14 59 17.9 19.6 V 703 – Catalina Sky Survey MPS 277585
2009 02 25.32299 10 21 21.24 +14 59 19.6 19.8 V 703 – Catalina Sky Survey MPS 277585
2009 02 25.32840 10 21 20.84 +14 59 20.0 20.1 V 703 – Catalina Sky Survey MPS 277585
2009 02 26.17259 10 20 29.72 +15 00 53.6 20.4 V 691 – Steward Observatory, Kitt Peak-Spacewatch MPS 278642
2009 02 26.19099 10 20 28.59 +15 00 55.7 20.4 V 691 – Steward Observatory, Kitt Peak-Spacewatch MPS 278642
2009 02 26.20916 10 20 27.45 +15 00 57.7 20.4 V 691 – Steward Observatory, Kitt Peak-Spacewatch MPS 278642
2009 03 21.24942 09 59 59.13 +15 17 33.3 20.5 V G96 – Mt. Lemmon Survey MPS 282441
2009 03 21.25494 09 59 58.88 +15 17 33.2 20.6 V G96 – Mt. Lemmon Survey MPS 282441
2009 03 21.26042 09 59 58.66 +15 17 32.6 20.9 V G96 – Mt. Lemmon Survey MPS 282441
2009 03 21.26590 09 59 58.41 +15 17 32.6 21.1 V G96 – Mt. Lemmon Survey MPS 282441
2010 02 27.502226 16 23 50.89 -33 06 43.3   C51 – WISE MPS 337119
2010 02 27.634530 16 23 59.87 -33 07 46.5   C51 – WISE MPS 337119
2010 02 27.766833 16 24 08.88 -33 08 45.6   C51 – WISE MPS 317759
2010 02 27.899138 16 24 17.81 -33 09 48.0   C51 – WISE MPS 337119
2010 02 27.899265 16 24 17.88 -33 09 48.4   C51 – WISE MPS 337119
2010 02 27.965353 16 24 22.30 -33 10 19.3   C51 – WISE MPS 337119
2010 02 28.031569 16 24 26.791 -33 10 46.27   C51 – WISE MPS 926711
2010 02 28.097657 16 24 31.22 -33 11 20.1   C51 – WISE MPS 337119
2010 02 28.163873 16 24 35.71 -33 11 51.8   C51 – WISE MPS 317759
2010 02 28.494697 16 24 57.94 -33 14 25.4   C51 – WISE MPS 317759
2010 02 28.627001 16 25 06.83 -33 15 26.5   C51 – WISE MPS 317759
2010 02 28.759306 16 25 15.70 -33 16 28.7   C51 – WISE MPS 317759
2011 10 04.02606 02 23 11.91 +28 10 33.3 19.1 R 461 – University of Szeged, Piszkesteto Stn. (Konkol MPS 394913
2011 10 04.03684 02 23 11.39 +28 10 35.7 19.1 R 461 – University of Szeged, Piszkesteto Stn. (Konkol MPS 394913
2011 10 04.04765 02 23 10.84 +28 10 37.7 19.2 R 461 – University of Szeged, Piszkesteto Stn. (Konkol MPS 394913
2011 10 18.25643 02 09 31.89 +28 38 32.4 19.2 V 703 – Catalina Sky Survey MPS 396056
2011 10 18.26297 02 09 31.50 +28 38 33.1 19.5 V 703 – Catalina Sky Survey MPS 396056
2011 10 18.26957 02 09 31.10 +28 38 32.7 20.1 V 703 – Catalina Sky Survey MPS 396056
2011 10 18.27612 02 09 30.56 +28 38 33.1 19.9 V 703 – Catalina Sky Survey MPS 396056
2011 10 24.38310 02 02 46.21 +28 36 02.1 19.2 V 703 – Catalina Sky Survey MPS 397900
2011 10 24.39352 02 02 45.45 +28 36 00.5 19.2 V 703 – Catalina Sky Survey MPS 397900
2011 10 24.40393 02 02 44.70 +28 35 59.8 19.6 V 703 – Catalina Sky Survey MPS 397901
2011 10 24.41438 02 02 44.05 +28 35 59.4 19.3 V 703 – Catalina Sky Survey MPS 397901
2011 11 02.20811 01 53 00.78 +28 18 10.4 19.5 V G96 – Mt. Lemmon Survey MPS 399765
2011 11 02.21861 01 53 00.09 +28 18 08.6 19.4 V G96 – Mt. Lemmon Survey MPS 399765
2011 11 02.22912 01 52 59.41 +28 18 06.9 19.4 V G96 – Mt. Lemmon Survey MPS 399765
2011 11 02.23953 01 52 58.69 +28 18 05.1 19.5 V G96 – Mt. Lemmon Survey MPS 399765
2011 11 03.19582 01 51 57.52 +28 15 15.9 19.4 V G96 – Mt. Lemmon Survey MPS 399765
2011 11 03.20454 01 51 56.95 +28 15 14.5 19.4 V G96 – Mt. Lemmon Survey MPS 399765
2011 11 03.21331 01 51 56.37 +28 15 12.8 19.5 V G96 – Mt. Lemmon Survey MPS 399765
2011 11 03.22198 01 51 55.80 +28 15 11.2 19.4 V G96 – Mt. Lemmon Survey MPS 399765
